Вернуться в каталог

COSMOS 1249 COOLANT

АктивенLEO
NORAD 26504·DEBRIS·🇷🇺 Russia

Запущен Mar 5, 1981 с Baikonur Cosmodrome

Loading…

Ближайшие Пролёты (ближайшие 24 часа)

TLE

УстаревающийSource: Space-Track

Эпоха: Sep 12, 2026, 01:50 UTC

1 26504U 81021F   26255.07692337  .00000046  00000-0  10498-3 0  9991
2 26504  64.9626  56.1956 0059129 228.4321 243.8043 13.92517332352912

Отслеживайте COSMOS 1249 COOLANT в реальном времени с AllMySat

Download on the App Store